Location: Hermaringen
(48.5952°N, 10.2585°E)
Time: 07:29:54
(UTC+00:00)

Cosmos 1869 - Pass Details

Date: 18 November 2025
Orbit: 453 x 481 km, 82.5° (Epoch: 06 December)

Event Time Altitude Azimuth Distance (km) Brightness Sun altitude
Rises 16:41:21 0° 181° (S) 2,486 6.9 -10.8°
Reaches altitude 10° 16:43:27 10° 178° (S) 1,610 5.9 -11.1°
Maximum altitude 16:46:55 64° 97° (E) 516 2.9 -11.7°
Drops below altitude 10° 16:50:24 10° 15° (NNE) 1,610 5.4 -12.2°
Enters shadow 16:51:56 - 13° (NNE) 2,258 6.2 -12.5°
